Weather History for KOXC - April, 2012

Change the Weather History Date:

Sunday, April 1, 2012

  Actual Average Record
Temperature  
Mean Temperature 42 °F -  
Max Temperature 48 °F 48 °F 66 °F (2006)
Min Temperature 35 °F 31 °F 23 °F (2003)
Degree Days  
Heating Degree Days 24    
Moisture  
Dew Point 35 °F    
Average Humidity 81    
Maximum Humidity 93    
Minimum Humidity 50    
Precipitation  
Precipitation 0.01 in - - ()
Sea Level Pressure  
Sea Level Pressure 29.80 in    
Wind  
Wind Speed 1 mph (WNW)    
Max Wind Speed 7 mph    
Max Gust Speed -    
Visibility 7 miles    
Events Rain    
Averages and records for this station are not official NWS values.
T = Trace of Precipitation, MM = Missing Value Source: NWS Daily Summary

Daily Weather History Graph

Daily Weather History Graph

Search for Another Location

Airport or City:

Trip Planner

Search our weather history database for the weather conditions in past years. The results will help you decide how hot, cold, wet, or windy it might be!

Date:

Astronomy

Apr. 01, 2012 Rise Set
Actual Time 6:34 AM EDT 7:18 PM EDT
Civil Twilight 6:06 AM EDT 7:46 PM EDT
Nautical Twilight 5:33 AM EDT 8:19 PM EDT
Astronomical Twilight 4:59 AM EDT 8:53 PM EDT
Moon 1:42 PM EDT (4/1) 3:13 AM EDT (4/1)
Length of Visible Light 13h 39m
Length of Day
12h 43m
Waxing Gibbous, 69% of the Moon is Illuminated
Apr 1
Waxing Gibbous
Apr 6
Full
Apr 13
Last Quarter
Apr 21
New
Apr 29
First Quarter

Hourly Weather History & Observations

Time (EDT) Temp. Windchill Dew Point Humidity Pressure Visibility Wind Dir Wind Speed Gust Speed Precip Events Conditions
12:15 AM 35.6 °F - 32.0 °F 87% 29.92 in 10.0 mi Calm Calm - N/A   Overcast
12:35 AM 35.6 °F - 32.0 °F 87% 29.91 in 10.0 mi Calm Calm - N/A   Overcast
12:55 AM 35.6 °F - 32.0 °F 87% 29.91 in 10.0 mi Calm Calm - N/A   Overcast
1:15 AM 35.6 °F - 32.0 °F 87% 29.91 in 7.0 mi Calm Calm - N/A   Overcast
1:55 AM 35.6 °F - 32.0 °F 87% 29.90 in 10.0 mi Calm Calm - N/A   Overcast
2:15 AM 35.6 °F - 32.0 °F 87% 29.90 in 7.0 mi Calm Calm - N/A   Overcast
2:35 AM 35.6 °F - 32.0 °F 87% 29.90 in 4.0 mi Calm Calm - N/A   Overcast
2:55 AM 35.6 °F - 33.8 °F 93% 29.89 in 10.0 mi Calm Calm - N/A   Overcast
3:15 AM 35.6 °F - 33.8 °F 93% 29.89 in 10.0 mi Calm Calm - N/A   Overcast
3:35 AM 35.6 °F - 32.0 °F 87% 29.89 in 9.0 mi Calm Calm - N/A   Overcast
3:55 AM 35.6 °F 32.8 °F 33.8 °F 93% 29.89 in 6.0 mi WNW 3.5 mph - N/A   Overcast
4:15 AM 37.4 °F - 33.8 °F 87% 29.89 in 9.0 mi Calm Calm - N/A   Overcast
4:35 AM 37.4 °F - 32.0 °F 81% 29.89 in 10.0 mi Calm Calm - N/A   Overcast
4:55 AM 37.4 °F - 33.8 °F 87% 29.88 in 10.0 mi Calm Calm - N/A   Overcast
5:15 AM 37.4 °F - 33.8 °F 87% 29.89 in 7.0 mi Calm Calm - N/A   Overcast
5:35 AM 37.4 °F - 32.0 °F 81% 29.88 in 10.0 mi Calm Calm - N/A   Overcast
5:45 AM 37.4 °F - 32.0 °F 81% 29.88 in 6.0 mi Calm Calm - N/A   Overcast
6:45 AM 37.4 °F 34.9 °F 33.8 °F 87% 29.88 in 6.0 mi NNW 3.5 mph - N/A   Overcast
8:45 AM 39.2 °F - 33.8 °F 81% 29.88 in 10.0 mi Calm Calm - N/A   Overcast
9:45 AM 44.6 °F 42.2 °F 33.8 °F 66% 29.86 in 10.0 mi NNE 4.6 mph - N/A   Mostly Cloudy
10:45 AM 46.4 °F 42.9 °F 30.2 °F 53% 29.85 in 10.0 mi West 6.9 mph - N/A   Overcast
11:45 AM 46.4 °F 43.5 °F 32.0 °F 57% 29.82 in 10.0 mi SW 5.8 mph - N/A   Overcast
12:45 PM 46.4 °F 42.9 °F 32.0 °F 57% 29.80 in 10.0 mi WSW 6.9 mph - N/A   Overcast
2:45 PM 48.2 °F - 30.2 °F 50% 29.75 in 10.0 mi SW 6.9 mph - N/A   Overcast
4:45 PM 44.6 °F - 37.4 °F 76% 29.71 in 5.0 mi Calm Calm - N/A Rain Light Rain
5:45 PM 42.8 °F - 37.4 °F 81% 29.70 in 5.0 mi Calm Calm - N/A Rain Light Rain
6:50 PM 42.8 °F - 39.2 °F 87% 29.70 in 3.0 mi Calm Calm - N/A Rain Light Rain
7:45 PM 42.8 °F - 37.4 °F 81% 29.68 in 3.0 mi Calm Calm - N/A Rain Light Rain
8:45 PM 42.8 °F - 37.4 °F 81% 29.67 in 4.0 mi Calm Calm - N/A Rain Light Rain
9:15 PM 42.8 °F - 39.2 °F 87% 29.68 in 4.0 mi Calm Calm - N/A   Overcast
9:35 PM 42.8 °F - 39.2 °F 87% 29.68 in 3.0 mi Calm Calm - 0.01 in   Overcast
9:55 PM 42.8 °F - 37.4 °F 81% 29.67 in 3.0 mi Calm Calm - 0.01 in   Overcast
10:15 PM 42.8 °F - 37.4 °F 81% 29.66 in 2.0 mi Calm Calm - N/A   Overcast
10:35 PM - - - N/A% 29.66 in 3.0 mi Calm Calm - N/A   Mostly Cloudy
10:55 PM 42.8 °F - 39.2 °F 87% 29.66 in 1.8 mi Calm Calm - N/A   Overcast
11:15 PM 42.8 °F - 39.2 °F 87% 29.65 in 2.0 mi Calm Calm - N/A   Overcast
11:35 PM 42.8 °F - 39.2 °F 87% 29.64 in 1.2 mi Calm Calm - N/A   Overcast
11:55 PM 42.8 °F 40.1 °F 37.4 °F 81% 29.64 in 4.0 mi NW 4.6 mph - N/A   Overcast